Torna al catalogo

DMSP 5D-2 F11 DEB

AttivoPO
NORAD 29077·DEBRIS·🇺🇸 United States

Lanciato Nov 28, 1991 da Vandenberg Space Force Base

Loading…

Prossimi Passaggi (prossime 24 ore)

TLE

AggiornatoSource: Space-Track

Epoca: Sep 14, 2026, 08:49 UTC

1 29077U 91082BY  26257.36749884  .00009858  00000-0  21113-2 0  9996
2 29077  98.6971  51.3342 0047612 255.4509 104.1405 14.58217509139285

Traccia DMSP 5D-2 F11 DEB in tempo reale con AllMySat

Download on the App Store